DLH455 LMML-EDDH

Flight info

Callsign DLH455
Flight time 2h 52m
Altitude 18000
Route GZO P126 DILIN/N0437F380 DCT ROSAS DCT LAT DCT GIKEB DCT EKPEB DCT BRENO M726 LONLI DCT NARUS M726 LASTO DCT ABGUS DCT DIRBO/N0354F230 T902 RARUP RARUP3P
Aircraft A20N/M-SDE2E3FGHIRWXY/LB1

Departure

Time 2026-04-26 12:16
Airport Malta International Airport (LMML)

Arrival

Time 2026-04-26 15:08
Airport Hamburg Helmut Schmidt Airport (EDDH)
Time Latitude Longitude Altitude Speed Heading
2026-04-26 11:51 35.86039 14.47669 261 ft 0 kts 352°
2026-04-26 12:07 35.86037 14.47670 261 ft 1 kts 355°
2026-04-26 12:07 35.86030 14.47670 261 ft 1 kts 10°
2026-04-26 12:07 35.86022 14.47668 261 ft 1 kts 24°
2026-04-26 12:07 35.86015 14.47664 261 ft 1 kts 39°
2026-04-26 12:08 35.86009 14.47658 261 ft 1 kts 54°
2026-04-26 12:08 35.86005 14.47650 262 ft 1 kts 69°
2026-04-26 12:08 35.86001 14.47632 262 ft 10 kts 82°
2026-04-26 12:08 35.85998 14.47576 263 ft 3 kts 96°
2026-04-26 12:09 35.86006 14.47550 263 ft 3 kts 134°
2026-04-26 12:09 35.86007 14.47549 263 ft 0 kts 135°
2026-04-26 12:11 35.86004 14.47552 263 ft 2 kts 135°
2026-04-26 12:11 35.85998 14.47560 263 ft 0 kts 136°
2026-04-26 12:12 35.85997 14.47561 263 ft 1 kts 136°
2026-04-26 12:12 35.85979 14.47582 263 ft 6 kts 135°
2026-04-26 12:12 35.85967 14.47597 263 ft 8 kts 135°
2026-04-26 12:13 35.85904 14.47675 262 ft 9 kts 134°
2026-04-26 12:13 35.85896 14.47746 262 ft 11 kts 63°
2026-04-26 12:13 35.85931 14.47848 260 ft 15 kts 70°
2026-04-26 12:13 35.85967 14.47965 258 ft 10 kts 66°
2026-04-26 12:14 35.85989 14.48023 257 ft 6 kts 64°
2026-04-26 12:14 35.85992 14.48030 257 ft 0 kts 64°
2026-04-26 12:14 35.85992 14.48032 257 ft 2 kts 64°
2026-04-26 12:15 35.86008 14.48071 256 ft 9 kts 64°
2026-04-26 12:15 35.85981 14.48121 255 ft 9 kts 185°
2026-04-26 12:15 35.85965 14.48110 255 ft 1 kts 221°
2026-04-26 12:15 35.85947 14.48076 256 ft 6 kts 236°
2026-04-26 12:16 35.85875 14.47952 261 ft 46 kts 234°
2026-04-26 12:16 35.85534 14.47372 273 ft 117 kts 234°
2026-04-26 12:16 35.84963 14.46383 416 ft 157 kts 234°
2026-04-26 12:16 35.84341 14.45272 1088 ft 159 kts 235°
2026-04-26 12:17 35.83695 14.44174 1757 ft 157 kts 235°
2026-04-26 12:17 35.83028 14.43051 2569 ft 169 kts 235°
2026-04-26 12:17 35.82330 14.41846 3433 ft 175 kts 234°
2026-04-26 12:17 35.81652 14.40585 4190 ft 182 kts 237°
2026-04-26 12:18 35.80932 14.39215 4720 ft 201 kts 237°
2026-04-26 12:18 35.80111 14.37656 5058 ft 233 kts 237°
2026-04-26 12:18 35.79606 14.35687 5452 ft 258 kts 272°
2026-04-26 12:18 35.80191 14.33559 6123 ft 272 kts 306°
2026-04-26 12:19 35.81568 14.31961 7087 ft 273 kts 322°
2026-04-26 12:19 35.83051 14.30493 8104 ft 274 kts 319°
2026-04-26 12:19 35.84507 14.28951 9038 ft 278 kts 318°
2026-04-26 12:19 35.85974 14.27372 9996 ft 281 kts 318°
2026-04-26 12:20 35.87466 14.25760 10689 ft 294 kts 318°
2026-04-26 12:20 35.89067 14.24027 11023 ft 318 kts 318°
2026-04-26 12:20 35.90780 14.22173 11437 ft 335 kts 318°
2026-04-26 12:20 35.92679 14.20489 12216 ft 341 kts 334°
2026-04-26 12:21 35.94975 14.19722 13024 ft 348 kts 354°
2026-04-26 12:21 35.97410 14.19916 13811 ft 355 kts
2026-04-26 12:21 35.99874 14.20322 14516 ft 359 kts
2026-04-26 12:21 36.02368 14.20494 15263 ft 361 kts 359°
2026-04-26 12:22 36.04881 14.20299 15974 ft 363 kts 349°
2026-04-26 12:22 36.07376 14.19733 16713 ft 366 kts 347°
2026-04-26 12:22 36.09893 14.19145 17434 ft 370 kts 347°
2026-04-26 12:22 36.12441 14.18553 17803 ft 374 kts 347°
2026-04-26 12:23 36.14961 14.17973 17956 ft 374 kts 347°
2026-04-26 12:23 36.17523 14.17385 18098 ft 375 kts 347°
2026-04-26 12:23 36.20088 14.16798 18169 ft 376 kts 347°
2026-04-26 12:23 36.22658 14.16210 18168 ft 375 kts 347°
2026-04-26 12:24 36.25220 14.15623 18167 ft 375 kts 347°
2026-04-26 12:24 36.27791 14.15034 18173 ft 375 kts 347°
2026-04-26 12:24 36.30355 14.14445 18169 ft 375 kts 347°
2026-04-26 12:25 36.35494 14.13265 18172 ft 375 kts 347°
2026-04-26 12:25 36.38065 14.12673 18166 ft 376 kts 347°
2026-04-26 12:25 36.40636 14.12081 18169 ft 376 kts 347°
2026-04-26 12:25 36.43209 14.11488 18166 ft 376 kts 347°
2026-04-26 12:26 36.45782 14.10895 18165 ft 376 kts 347°
2026-04-26 12:26 36.48357 14.10301 18166 ft 377 kts 347°
2026-04-26 12:26 36.50935 14.09707 18165 ft 376 kts 347°
2026-04-26 12:26 36.53509 14.09113 18161 ft 376 kts 347°
2026-04-26 12:27 36.56084 14.08518 18160 ft 377 kts 347°
2026-04-26 12:27 36.58661 14.07923 18168 ft 376 kts 347°
2026-04-26 12:27 36.61239 14.07328 18158 ft 377 kts 347°
2026-04-26 12:27 36.63815 14.06732 18163 ft 377 kts 347°
2026-04-26 12:28 36.66397 14.06134 18158 ft 377 kts 347°
2026-04-26 12:28 36.68973 14.05538 18164 ft 377 kts 347°
2026-04-26 12:28 36.71550 14.04941 18164 ft 377 kts 347°
2026-04-26 12:28 36.74127 14.04343 18158 ft 377 kts 347°
2026-04-26 12:29 36.76703 14.03746 18166 ft 377 kts 347°
2026-04-26 12:29 36.79279 14.03147 18158 ft 376 kts 347°
2026-04-26 12:29 36.84435 14.01949 18161 ft 377 kts 347°
2026-04-26 12:30 36.87012 14.01349 18163 ft 377 kts 347°
2026-04-26 12:30 36.89595 14.00748 18158 ft 377 kts 347°
2026-04-26 12:30 36.92176 14.00146 18159 ft 377 kts 347°
2026-04-26 12:31 36.97336 13.98943 18160 ft 378 kts 347°
2026-04-26 12:31 36.99921 13.98340 18157 ft 378 kts 347°
2026-04-26 12:31 37.02506 13.97741 18155 ft 378 kts 348°
2026-04-26 12:31 37.05092 13.97168 18155 ft 378 kts 348°
2026-04-26 12:32 37.07681 13.96603 18152 ft 378 kts 348°
2026-04-26 12:32 37.10241 13.96045 18161 ft 378 kts 348°
2026-04-26 12:32 37.15421 13.94909 18151 ft 378 kts 348°
2026-04-26 12:33 37.18014 13.94338 18154 ft 378 kts 348°
2026-04-26 12:33 37.20606 13.93766 18148 ft 378 kts 348°
2026-04-26 12:33 37.23202 13.93193 18146 ft 378 kts 348°
2026-04-26 12:33 37.25796 13.92619 18145 ft 379 kts 348°
2026-04-26 12:34 37.28389 13.92044 18147 ft 379 kts 348°
2026-04-26 12:34 37.30986 13.91469 18148 ft 379 kts 348°
2026-04-26 12:34 37.33576 13.90895 18145 ft 379 kts 348°
2026-04-26 12:34 37.36172 13.90318 18140 ft 379 kts 348°
2026-04-26 12:35 37.38774 13.89738 18131 ft 379 kts 348°
2026-04-26 12:35 37.41376 13.89161 18146 ft 380 kts 348°
2026-04-26 12:35 37.43983 13.88582 18134 ft 380 kts 348°
2026-04-26 12:35 37.46589 13.88002 18138 ft 381 kts 348°
2026-04-26 12:36 37.49205 13.87420 18137 ft 381 kts 348°
2026-04-26 12:36 37.51819 13.86838 18135 ft 382 kts 348°
2026-04-26 12:36 37.54433 13.86254 18142 ft 382 kts 348°
2026-04-26 12:36 37.57050 13.85669 18143 ft 382 kts 349°
2026-04-26 12:37 37.59675 13.85083 18138 ft 382 kts 348°
2026-04-26 12:37 37.62285 13.84500 18137 ft 382 kts 349°
2026-04-26 12:37 37.64910 13.83915 18134 ft 383 kts 349°
2026-04-26 12:37 37.67537 13.83325 18147 ft 383 kts 349°
2026-04-26 12:38 37.70165 13.82735 18138 ft 384 kts 348°
2026-04-26 12:38 37.72796 13.82145 18142 ft 384 kts 349°
2026-04-26 12:38 37.75430 13.81555 18143 ft 385 kts 349°
2026-04-26 12:38 37.78063 13.80962 18140 ft 385 kts 348°
2026-04-26 12:39 37.80707 13.80367 18143 ft 386 kts 349°
2026-04-26 12:39 37.83347 13.79777 18161 ft 386 kts 349°
2026-04-26 12:39 37.85995 13.79183 18153 ft 386 kts 349°
2026-04-26 12:39 37.88643 13.78587 18147 ft 386 kts 349°
2026-04-26 12:40 37.91286 13.77992 18154 ft 387 kts 349°
2026-04-26 12:40 37.93932 13.77397 18157 ft 386 kts 349°
2026-04-26 12:40 37.96577 13.76800 18159 ft 386 kts 349°
2026-04-26 12:40 37.99225 13.76203 18162 ft 386 kts 349°
2026-04-26 12:41 38.01867 13.75605 18159 ft 386 kts 349°
2026-04-26 12:41 38.04512 13.75006 18160 ft 387 kts 349°
2026-04-26 12:41 38.07159 13.74407 18167 ft 386 kts 349°
2026-04-26 12:41 38.09808 13.73807 18165 ft 386 kts 349°
2026-04-26 12:42 38.12451 13.73208 18167 ft 386 kts 349°
2026-04-26 12:42 38.15096 13.72609 18166 ft 386 kts 349°
2026-04-26 12:42 38.17740 13.72009 18167 ft 386 kts 349°
2026-04-26 12:42 38.20384 13.71409 18167 ft 386 kts 349°
2026-04-26 12:43 38.23025 13.70809 18167 ft 386 kts 349°
2026-04-26 12:43 38.25634 13.70216 18171 ft 386 kts 349°
2026-04-26 12:43 38.28271 13.69615 18170 ft 385 kts 349°
2026-04-26 12:43 38.30915 13.69013 18166 ft 386 kts 349°
2026-04-26 12:44 38.33556 13.68412 18165 ft 386 kts 349°
2026-04-26 12:44 38.36195 13.67810 18167 ft 386 kts 349°
2026-04-26 12:44 38.38837 13.67207 18162 ft 386 kts 349°
2026-04-26 12:44 38.41478 13.66604 18163 ft 385 kts 349°
2026-04-26 12:45 38.44115 13.66001 18165 ft 385 kts 349°
2026-04-26 12:45 38.46734 13.65402 18165 ft 384 kts 349°
2026-04-26 12:45 38.49381 13.64796 18165 ft 384 kts 349°
2026-04-26 12:45 38.52009 13.64194 18170 ft 383 kts 349°
2026-04-26 12:46 38.54632 13.63592 18166 ft 383 kts 349°
2026-04-26 12:46 38.57256 13.62990 18165 ft 383 kts 349°
2026-04-26 12:46 38.59876 13.62389 18167 ft 383 kts 349°
2026-04-26 12:46 38.62497 13.61787 18165 ft 382 kts 349°
2026-04-26 12:47 38.65116 13.61185 18164 ft 383 kts 349°
2026-04-26 12:47 38.67733 13.60582 18166 ft 383 kts 349°
2026-04-26 12:47 38.70354 13.59979 18165 ft 382 kts 349°
2026-04-26 12:47 38.72969 13.59376 18164 ft 382 kts 349°
2026-04-26 12:48 38.75578 13.58774 18165 ft 381 kts 349°
2026-04-26 12:48 38.78189 13.58172 18167 ft 381 kts 349°
2026-04-26 12:48 38.80798 13.57569 18164 ft 381 kts 349°
2026-04-26 12:48 38.83411 13.56965 18168 ft 381 kts 349°
2026-04-26 12:49 38.86015 13.56363 18171 ft 380 kts 349°
2026-04-26 12:49 38.88621 13.55760 18168 ft 381 kts 349°
2026-04-26 12:49 38.91228 13.55156 18170 ft 381 kts 349°
2026-04-26 12:49 38.93835 13.54552 18167 ft 380 kts 349°
2026-04-26 12:50 38.96438 13.53948 18168 ft 380 kts 349°
2026-04-26 12:50 38.99044 13.53343 18170 ft 381 kts 349°
2026-04-26 12:50 39.01650 13.52737 18169 ft 381 kts 349°
2026-04-26 12:50 39.04254 13.52132 18166 ft 380 kts 349°
2026-04-26 12:51 39.06854 13.51527 18170 ft 380 kts 349°
2026-04-26 12:51 39.09457 13.50921 18166 ft 380 kts 349°
2026-04-26 12:51 39.12059 13.50315 18166 ft 380 kts 349°
2026-04-26 12:51 39.14662 13.49709 18166 ft 380 kts 349°
2026-04-26 12:52 39.17259 13.49103 18169 ft 380 kts 349°
2026-04-26 12:52 39.19829 13.48502 18167 ft 380 kts 349°
2026-04-26 12:52 39.22430 13.47894 18169 ft 380 kts 349°
2026-04-26 12:52 39.25035 13.47284 18172 ft 380 kts 349°
2026-04-26 12:53 39.27635 13.46676 18166 ft 380 kts 349°
2026-04-26 12:53 39.30235 13.46067 18169 ft 380 kts 349°
2026-04-26 12:53 39.32834 13.45458 18168 ft 380 kts 349°
2026-04-26 12:53 39.35433 13.44848 18168 ft 379 kts 349°
2026-04-26 12:54 39.38028 13.44239 18169 ft 380 kts 349°
2026-04-26 12:54 39.40628 13.43628 18170 ft 379 kts 349°
2026-04-26 12:54 39.43224 13.43018 18170 ft 379 kts 349°
2026-04-26 12:54 39.45821 13.42407 18167 ft 380 kts 349°
2026-04-26 12:55 39.48418 13.41795 18168 ft 379 kts 349°
2026-04-26 12:55 39.51014 13.41184 18165 ft 379 kts 349°
2026-04-26 12:55 39.53611 13.40571 18168 ft 379 kts 349°
2026-04-26 12:55 39.56205 13.39959 18169 ft 379 kts 349°
2026-04-26 12:56 39.58802 13.39345 18166 ft 379 kts 349°
2026-04-26 12:56 39.61396 13.38732 18167 ft 379 kts 349°
2026-04-26 12:56 39.63992 13.38118 18168 ft 379 kts 349°
2026-04-26 12:56 39.66584 13.37504 18169 ft 379 kts 349°
2026-04-26 12:57 39.69176 13.36890 18169 ft 379 kts 349°
2026-04-26 12:57 39.71764 13.36277 18166 ft 379 kts 349°
2026-04-26 12:57 39.74359 13.35661 18168 ft 378 kts 349°
2026-04-26 12:58 39.79500 13.34440 18166 ft 378 kts 349°
2026-04-26 12:58 39.82087 13.33825 18167 ft 378 kts 349°
2026-04-26 12:58 39.84671 13.33210 18171 ft 378 kts 349°
2026-04-26 12:58 39.87253 13.32596 18170 ft 378 kts 349°
2026-04-26 12:59 39.89831 13.31981 18163 ft 377 kts 349°
2026-04-26 12:59 39.92419 13.31363 18167 ft 377 kts 349°
2026-04-26 12:59 39.94997 13.30748 18164 ft 377 kts 349°
2026-04-26 12:59 39.97578 13.30131 18163 ft 377 kts 349°
2026-04-26 13:00 40.00158 13.29514 18163 ft 377 kts 349°
2026-04-26 13:00 40.02737 13.28897 18165 ft 377 kts 349°
2026-04-26 13:00 40.05313 13.28279 18164 ft 376 kts 349°
2026-04-26 13:00 40.07053 13.27862 18165 ft 376 kts 349°
2026-04-26 13:01 40.09593 13.27253 18167 ft 376 kts 349°
2026-04-26 13:01 40.12202 13.26627 18163 ft 376 kts 349°
2026-04-26 13:01 40.14739 13.26018 18164 ft 376 kts 349°
2026-04-26 13:01 40.17344 13.25392 18165 ft 376 kts 349°
2026-04-26 13:02 40.19881 13.24782 18162 ft 376 kts 349°
2026-04-26 13:02 40.22452 13.24163 18161 ft 376 kts 349°
2026-04-26 13:02 40.25020 13.23545 18163 ft 375 kts 349°
2026-04-26 13:02 40.27587 13.22926 18159 ft 375 kts 348°
2026-04-26 13:03 40.30158 13.22305 18166 ft 375 kts 348°
2026-04-26 13:03 40.32725 13.21685 18164 ft 375 kts 348°
2026-04-26 13:03 40.35291 13.21065 18160 ft 375 kts 348°
2026-04-26 13:03 40.37858 13.20444 18166 ft 375 kts 348°
2026-04-26 13:04 40.40423 13.19823 18164 ft 375 kts 348°
2026-04-26 13:04 40.42985 13.19202 18159 ft 375 kts 348°
2026-04-26 13:04 40.45552 13.18580 18162 ft 375 kts 348°
2026-04-26 13:04 40.48119 13.17957 18162 ft 375 kts 348°
2026-04-26 13:05 40.50682 13.17335 18163 ft 375 kts 348°
2026-04-26 13:05 40.53246 13.16712 18156 ft 375 kts 348°
2026-04-26 13:05 40.55813 13.16088 18158 ft 375 kts 348°
2026-04-26 13:05 40.58374 13.15465 18161 ft 375 kts 348°
2026-04-26 13:06 40.60936 13.14841 18161 ft 375 kts 348°
2026-04-26 13:06 40.63500 13.14217 18159 ft 375 kts 348°
2026-04-26 13:06 40.66062 13.13592 18157 ft 374 kts 348°
2026-04-26 13:06 40.68627 13.12965 18158 ft 374 kts 348°
2026-04-26 13:07 40.71185 13.12341 18156 ft 375 kts 348°
2026-04-26 13:07 40.73750 13.11714 18157 ft 375 kts 348°
2026-04-26 13:07 40.76312 13.11087 18156 ft 374 kts 348°
2026-04-26 13:07 40.78872 13.10457 18158 ft 374 kts 348°
2026-04-26 13:08 40.81434 13.09830 18154 ft 375 kts 348°
2026-04-26 13:08 40.83997 13.09205 18159 ft 374 kts 347°
2026-04-26 13:08 40.86557 13.08580 18155 ft 374 kts 347°
2026-04-26 13:08 40.89112 13.07954 18155 ft 374 kts 347°
2026-04-26 13:09 40.91673 13.07325 18161 ft 375 kts 347°
2026-04-26 13:09 40.94254 13.06689 18542 ft 379 kts 347°
2026-04-26 13:09 40.96837 13.06053 19281 ft 378 kts 347°
2026-04-26 13:09 40.99434 13.05411 19933 ft 381 kts 347°
2026-04-26 13:10 41.02055 13.04763 20555 ft 384 kts 347°
2026-04-26 13:10 41.04697 13.04109 21181 ft 388 kts 348°
2026-04-26 13:10 41.07358 13.03451 21811 ft 390 kts 348°
2026-04-26 13:10 41.10038 13.02787 22410 ft 394 kts 348°
2026-04-26 13:11 41.12744 13.02116 23032 ft 397 kts 348°
2026-04-26 13:11 41.15463 13.01442 23630 ft 400 kts 348°
2026-04-26 13:11 41.18177 13.00768 24139 ft 403 kts 348°
2026-04-26 13:11 41.20981 13.00072 24624 ft 406 kts 348°
2026-04-26 13:12 41.23732 12.99389 25097 ft 409 kts 348°
2026-04-26 13:12 41.26538 12.98691 25577 ft 412 kts 348°
2026-04-26 13:12 41.29361 12.97989 26039 ft 415 kts 348°
2026-04-26 13:12 41.32212 12.97280 26499 ft 418 kts 348°
2026-04-26 13:13 41.35078 12.96565 26932 ft 420 kts 348°
2026-04-26 13:13 41.37959 12.95847 27379 ft 423 kts 348°
2026-04-26 13:13 41.40862 12.95123 27795 ft 426 kts 348°
2026-04-26 13:13 41.43788 12.94392 28192 ft 429 kts 348°
2026-04-26 13:14 41.46733 12.93656 28592 ft 432 kts 348°
2026-04-26 13:14 41.49696 12.92915 28972 ft 434 kts 348°
2026-04-26 13:14 41.52673 12.92170 29311 ft 438 kts 348°
2026-04-26 13:14 41.55684 12.91414 29634 ft 441 kts 348°
2026-04-26 13:15 41.58709 12.90632 29975 ft 444 kts 348°
2026-04-26 13:15 41.61757 12.89836 30316 ft 447 kts 348°
2026-04-26 13:15 41.64815 12.89038 30638 ft 449 kts 348°
2026-04-26 13:15 41.67887 12.88239 30981 ft 451 kts 348°
2026-04-26 13:16 41.70972 12.87437 31346 ft 452 kts 348°
2026-04-26 13:16 41.74051 12.86637 31774 ft 451 kts 347°
2026-04-26 13:16 41.77124 12.85839 32227 ft 450 kts 347°
2026-04-26 13:16 41.80198 12.85040 32666 ft 448 kts 347°
2026-04-26 13:17 41.86303 12.83448 33526 ft 446 kts 347°
2026-04-26 13:17 41.89340 12.82654 33932 ft 445 kts 347°
2026-04-26 13:18 41.95398 12.81069 34634 ft 443 kts 347°
2026-04-26 13:18 41.98420 12.80277 34931 ft 442 kts 347°
2026-04-26 13:18 42.04458 12.78694 35127 ft 441 kts 347°
2026-04-26 13:19 42.07465 12.77903 35125 ft 440 kts 347°
2026-04-26 13:19 42.13484 12.76320 35125 ft 441 kts 347°
2026-04-26 13:20 42.19501 12.74733 35132 ft 440 kts 347°
2026-04-26 13:20 42.25508 12.73148 35131 ft 440 kts 347°
2026-04-26 13:21 42.31520 12.71557 35128 ft 440 kts 347°
2026-04-26 13:21 42.37525 12.69964 35125 ft 440 kts 347°
2026-04-26 13:22 42.43534 12.68369 35126 ft 440 kts 347°
2026-04-26 13:22 42.49534 12.66770 35125 ft 440 kts 347°
2026-04-26 13:23 42.55545 12.65168 35129 ft 440 kts 347°
2026-04-26 13:23 42.61550 12.63564 35122 ft 439 kts 347°
2026-04-26 13:24 42.67546 12.61960 35118 ft 439 kts 347°
2026-04-26 13:24 42.73541 12.60350 35114 ft 439 kts 347°
2026-04-26 13:25 42.79540 12.58738 35116 ft 440 kts 347°
2026-04-26 13:25 42.85542 12.57121 35117 ft 440 kts 347°
2026-04-26 13:26 42.91544 12.55502 35121 ft 440 kts 347°
2026-04-26 13:26 42.97550 12.53877 35125 ft 440 kts 347°
2026-04-26 13:27 43.03553 12.52251 35130 ft 440 kts 347°
2026-04-26 13:27 43.09557 12.50621 35128 ft 440 kts 347°
2026-04-26 13:28 43.15562 12.48987 35129 ft 440 kts 347°
2026-04-26 13:28 43.21572 12.47349 35129 ft 441 kts 347°
2026-04-26 13:29 43.27584 12.45707 35126 ft 441 kts 347°
2026-04-26 13:29 43.33559 12.44071 35127 ft 441 kts 346°
2026-04-26 13:30 43.39582 12.42420 35127 ft 441 kts 347°
2026-04-26 13:30 43.45604 12.40765 35118 ft 441 kts 346°
2026-04-26 13:31 43.51622 12.39108 35116 ft 441 kts 346°
2026-04-26 13:31 43.57645 12.37447 35113 ft 441 kts 346°
2026-04-26 13:32 43.63660 12.35784 35110 ft 441 kts 346°
2026-04-26 13:32 43.69680 12.34115 35113 ft 441 kts 346°
2026-04-26 13:33 43.75694 12.32446 35109 ft 441 kts 346°
2026-04-26 13:33 43.81707 12.30773 35106 ft 441 kts 346°
2026-04-26 13:34 43.87713 12.29098 35106 ft 441 kts 346°
2026-04-26 13:34 43.93723 12.27420 35106 ft 440 kts 346°
2026-04-26 13:35 43.99732 12.25737 35099 ft 440 kts 346°
2026-04-26 13:35 44.05734 12.24055 35100 ft 440 kts 346°
2026-04-26 13:36 44.11741 12.22367 35101 ft 440 kts 346°
2026-04-26 13:36 44.17741 12.20677 35096 ft 440 kts 346°
2026-04-26 13:37 44.23741 12.18984 35098 ft 440 kts 346°
2026-04-26 13:37 44.29697 12.17299 35100 ft 440 kts 346°
2026-04-26 13:38 44.35697 12.15598 35097 ft 440 kts 346°
2026-04-26 13:38 44.41700 12.13893 35095 ft 440 kts 346°
2026-04-26 13:39 44.47702 12.12186 35090 ft 440 kts 346°
2026-04-26 13:39 44.53701 12.10475 35087 ft 440 kts 346°
2026-04-26 13:40 44.59709 12.08757 35086 ft 440 kts 346°
2026-04-26 13:40 44.65710 12.07039 35080 ft 440 kts 346°
2026-04-26 13:41 44.71708 12.05318 35087 ft 440 kts 346°
2026-04-26 13:41 44.77718 12.03589 35081 ft 440 kts 346°
2026-04-26 13:42 44.83720 12.01859 35080 ft 440 kts 346°
2026-04-26 13:42 44.89730 12.00123 35082 ft 441 kts 346°
2026-04-26 13:43 44.95736 11.98384 35083 ft 441 kts 346°
2026-04-26 13:43 45.01738 11.96644 35085 ft 441 kts 346°
2026-04-26 13:44 45.07752 11.94896 35088 ft 441 kts 346°
2026-04-26 13:44 45.13760 11.93146 35095 ft 441 kts 346°
2026-04-26 13:45 45.19775 11.91390 35101 ft 441 kts 346°
2026-04-26 13:45 45.24763 11.89931 35106 ft 441 kts 346°
2026-04-26 13:46 45.30767 11.88171 35105 ft 440 kts 346°
2026-04-26 13:46 45.36774 11.86406 35106 ft 440 kts 346°
2026-04-26 13:47 45.42770 11.84641 35104 ft 440 kts 346°
2026-04-26 13:47 45.48763 11.82873 35103 ft 440 kts 346°
2026-04-26 13:48 45.54754 11.81101 35096 ft 440 kts 346°
2026-04-26 13:48 45.60742 11.79329 35100 ft 440 kts 346°
2026-04-26 13:49 45.66728 11.77550 35101 ft 440 kts 346°
2026-04-26 13:49 45.72710 11.75770 35100 ft 439 kts 346°
2026-04-26 13:50 45.78698 11.73984 35103 ft 439 kts 346°
2026-04-26 13:50 45.84689 11.72193 35103 ft 440 kts 346°
2026-04-26 13:51 45.90663 11.70404 35112 ft 440 kts 346°
2026-04-26 13:51 45.96670 11.68601 35113 ft 439 kts 346°
2026-04-26 13:52 46.02617 11.66811 35116 ft 439 kts 346°
2026-04-26 13:52 46.08634 11.64998 35100 ft 439 kts 346°
2026-04-26 13:53 46.14571 11.63206 35112 ft 439 kts 346°
2026-04-26 13:53 46.20570 11.61400 35087 ft 438 kts 346°
2026-04-26 13:54 46.26536 11.59668 35068 ft 437 kts 346°
2026-04-26 13:54 46.32489 11.57937 35055 ft 437 kts 346°
2026-04-26 13:55 46.40406 11.55628 35047 ft 436 kts 346°
2026-04-26 13:56 46.50302 11.52723 35049 ft 437 kts 346°
2026-04-26 13:56 46.56265 11.50969 35057 ft 437 kts 346°
2026-04-26 13:57 46.62259 11.49204 35059 ft 436 kts 346°
2026-04-26 13:57 46.68171 11.47455 35067 ft 437 kts 346°
2026-04-26 13:58 46.74103 11.45591 35089 ft 437 kts 344°
2026-04-26 13:58 46.80046 11.43604 35110 ft 438 kts 344°
2026-04-26 13:59 46.85981 11.41637 35131 ft 438 kts 344°
2026-04-26 13:59 46.91920 11.39681 35124 ft 436 kts 344°
2026-04-26 14:00 47.00997 11.38046 35132 ft 443 kts 358°
2026-04-26 14:00 47.04074 11.38313 35135 ft 445 kts
2026-04-26 14:01 47.10245 11.38924 35135 ft 444 kts
2026-04-26 14:01 47.16401 11.39523 35129 ft 444 kts
2026-04-26 14:02 47.22580 11.40133 35128 ft 445 kts 359°
2026-04-26 14:02 47.28740 11.40186 35132 ft 442 kts 356°
2026-04-26 14:03 47.34903 11.40215 35133 ft 443 kts 356°
2026-04-26 14:03 47.41064 11.40228 35133 ft 443 kts 356°
2026-04-26 14:04 47.47232 11.40156 35146 ft 443 kts 356°
2026-04-26 14:04 47.53397 11.40082 35150 ft 443 kts 356°
2026-04-26 14:05 47.59552 11.40018 35155 ft 442 kts 356°
2026-04-26 14:05 47.65661 11.39516 35152 ft 438 kts 351°
2026-04-26 14:06 47.71746 11.38685 35178 ft 441 kts 351°
2026-04-26 14:06 47.77863 11.37861 35187 ft 442 kts 351°
2026-04-26 14:07 47.83989 11.37029 35199 ft 442 kts 351°
2026-04-26 14:07 47.90130 11.36330 35208 ft 443 kts 353°
2026-04-26 14:08 47.96288 11.35867 35208 ft 443 kts 353°
2026-04-26 14:08 48.02447 11.35374 35211 ft 443 kts 353°
2026-04-26 14:09 48.08585 11.34667 35214 ft 441 kts 348°
2026-04-26 14:09 48.14669 11.33464 35241 ft 441 kts 349°
2026-04-26 14:09 48.17718 11.32874 35068 ft 442 kts 349°
2026-04-26 14:10 48.20774 11.32283 34676 ft 442 kts 348°
2026-04-26 14:10 48.23821 11.31691 34284 ft 440 kts 348°
2026-04-26 14:10 48.26848 11.31101 34339 ft 440 kts 348°
2026-04-26 14:10 48.29910 11.30566 34467 ft 445 kts 350°
2026-04-26 14:11 48.36095 11.29629 34708 ft 444 kts 350°
2026-04-26 14:11 48.39176 11.29160 34829 ft 444 kts 350°
2026-04-26 14:11 48.42198 11.28692 34939 ft 444 kts 350°
2026-04-26 14:12 48.45314 11.28202 35074 ft 443 kts 350°
2026-04-26 14:12 48.48339 11.27722 35184 ft 444 kts 350°
2026-04-26 14:12 48.54468 11.26750 35215 ft 443 kts 350°
2026-04-26 14:13 48.63681 11.25280 35214 ft 444 kts 350°
2026-04-26 14:14 48.69821 11.24297 35212 ft 444 kts 350°
2026-04-26 14:14 48.75957 11.23311 35212 ft 444 kts 350°
2026-04-26 14:15 48.82113 11.22319 35217 ft 445 kts 350°
2026-04-26 14:15 48.88323 11.21973 35228 ft 449 kts 356°
2026-04-26 14:16 48.94574 11.22010 35235 ft 449 kts 356°
2026-04-26 14:16 49.00814 11.22032 35242 ft 449 kts 356°
2026-04-26 14:17 49.07057 11.22063 35244 ft 449 kts 356°
2026-04-26 14:17 49.13304 11.22098 35251 ft 448 kts 356°
2026-04-26 14:18 49.19536 11.22133 35249 ft 448 kts 356°
2026-04-26 14:18 49.25768 11.22175 35252 ft 448 kts 356°
2026-04-26 14:19 49.32037 11.22228 35247 ft 447 kts 356°
2026-04-26 14:19 49.38253 11.22280 35242 ft 446 kts 356°
2026-04-26 14:20 49.44453 11.22332 35234 ft 446 kts 356°
2026-04-26 14:20 49.50650 11.22382 35230 ft 445 kts 356°
2026-04-26 14:21 49.56849 11.22430 35229 ft 445 kts 356°
2026-04-26 14:21 49.63044 11.22441 35236 ft 445 kts 356°
2026-04-26 14:22 49.69190 11.22447 35240 ft 445 kts 356°
2026-04-26 14:22 49.75435 11.22458 35241 ft 445 kts 356°
2026-04-26 14:23 49.81593 11.22481 35254 ft 446 kts 356°
2026-04-26 14:23 49.87795 11.22521 35254 ft 446 kts 356°
2026-04-26 14:24 49.94003 11.22559 35264 ft 446 kts 356°
2026-04-26 14:24 50.00186 11.22597 34855 ft 442 kts 356°
2026-04-26 14:24 50.03264 11.22615 34244 ft 443 kts 356°
2026-04-26 14:25 50.06353 11.22632 33494 ft 443 kts 356°
2026-04-26 14:25 50.09431 11.22615 32928 ft 443 kts 355°
2026-04-26 14:25 50.12518 11.22411 32129 ft 445 kts 353°
2026-04-26 14:25 50.15623 11.22127 31262 ft 448 kts 353°
2026-04-26 14:26 50.18733 11.21842 30432 ft 450 kts 353°
2026-04-26 14:26 50.21859 11.21576 29716 ft 446 kts 354°
2026-04-26 14:26 50.24938 11.21332 29090 ft 441 kts 354°
2026-04-26 14:26 50.27981 11.21098 28440 ft 436 kts 354°
2026-04-26 14:27 50.29989 11.20946 28011 ft 433 kts 354°
2026-04-26 14:27 50.32983 11.20718 27410 ft 429 kts 354°
2026-04-26 14:27 50.35948 11.20493 26821 ft 425 kts 354°
2026-04-26 14:27 50.38885 11.20270 26207 ft 421 kts 355°
2026-04-26 14:28 50.41794 11.20050 25632 ft 416 kts 355°
2026-04-26 14:28 50.44675 11.19833 25067 ft 413 kts 355°
2026-04-26 14:28 50.47527 11.19618 24513 ft 409 kts 355°
2026-04-26 14:28 50.50358 11.19402 23966 ft 404 kts 355°
2026-04-26 14:29 50.53187 11.19186 23330 ft 401 kts 355°
2026-04-26 14:29 50.55929 11.18978 22718 ft 397 kts 355°
2026-04-26 14:29 50.58674 11.18770 22068 ft 394 kts 355°
2026-04-26 14:29 50.61399 11.18562 21471 ft 390 kts 355°
2026-04-26 14:30 50.64100 11.18356 20867 ft 387 kts 355°
2026-04-26 14:30 50.66780 11.18151 20302 ft 384 kts 355°
2026-04-26 14:30 50.69429 11.17869 19745 ft 380 kts 353°
2026-04-26 14:30 50.72048 11.17457 19174 ft 377 kts 352°
2026-04-26 14:31 50.74644 11.17018 18663 ft 374 kts 352°
2026-04-26 14:31 50.77200 11.16595 18392 ft 368 kts 352°
2026-04-26 14:31 50.79765 11.16182 18299 ft 372 kts 352°
2026-04-26 14:31 50.82338 11.15777 18298 ft 372 kts 352°
2026-04-26 14:32 50.84916 11.15379 18287 ft 372 kts 352°
2026-04-26 14:32 50.87487 11.14984 18292 ft 372 kts 352°
2026-04-26 14:32 50.90069 11.14588 18286 ft 372 kts 352°
2026-04-26 14:32 50.92637 11.14194 18291 ft 371 kts 352°
2026-04-26 14:33 50.95212 11.13799 18296 ft 371 kts 352°
2026-04-26 14:33 50.97776 11.13404 18288 ft 371 kts 352°
2026-04-26 14:33 51.00350 11.13004 18293 ft 371 kts 352°
2026-04-26 14:33 51.02917 11.12609 18296 ft 371 kts 352°
2026-04-26 14:34 51.05485 11.12213 18293 ft 371 kts 352°
2026-04-26 14:34 51.08053 11.11815 18295 ft 370 kts 352°
2026-04-26 14:34 51.10619 11.11418 18294 ft 370 kts 352°
2026-04-26 14:34 51.13177 11.11022 18299 ft 370 kts 352°
2026-04-26 14:35 51.15748 11.10727 18300 ft 371 kts 354°
2026-04-26 14:35 51.18329 11.10552 18294 ft 371 kts 355°
2026-04-26 14:35 51.20907 11.10398 18299 ft 371 kts 355°
2026-04-26 14:35 51.23485 11.10233 18297 ft 371 kts 355°
2026-04-26 14:36 51.26064 11.10053 18294 ft 370 kts 355°
2026-04-26 14:36 51.28640 11.09863 18291 ft 370 kts 355°
2026-04-26 14:36 51.31209 11.09667 18293 ft 370 kts 355°
2026-04-26 14:36 51.33782 11.09470 18294 ft 370 kts 354°
2026-04-26 14:37 51.36347 11.09270 18295 ft 370 kts 354°
2026-04-26 14:37 51.38920 11.09071 18300 ft 370 kts 354°
2026-04-26 14:37 51.41495 11.08873 18296 ft 369 kts 354°
2026-04-26 14:37 51.44063 11.08675 18298 ft 370 kts 354°
2026-04-26 14:38 51.46627 11.08477 18300 ft 369 kts 354°
2026-04-26 14:38 51.49196 11.08278 18292 ft 369 kts 354°
2026-04-26 14:38 51.51764 11.08079 18297 ft 369 kts 354°
2026-04-26 14:38 51.54326 11.07880 18295 ft 369 kts 354°
2026-04-26 14:39 51.56857 11.07683 18296 ft 369 kts 354°
2026-04-26 14:39 51.59459 11.07481 18297 ft 368 kts 354°
2026-04-26 14:39 51.61980 11.07285 18300 ft 369 kts 354°
2026-04-26 14:39 51.64545 11.07085 18301 ft 369 kts 354°
2026-04-26 14:40 51.67100 11.06884 18300 ft 368 kts 354°
2026-04-26 14:40 51.69660 11.06684 18305 ft 368 kts 354°
2026-04-26 14:40 51.72222 11.06484 18305 ft 368 kts 354°
2026-04-26 14:40 51.74781 11.06283 18311 ft 368 kts 354°
2026-04-26 14:41 51.77337 11.06083 18308 ft 368 kts 354°
2026-04-26 14:41 51.79891 11.05884 18304 ft 368 kts 354°
2026-04-26 14:41 51.82452 11.05682 18309 ft 368 kts 354°
2026-04-26 14:41 51.85006 11.05480 18309 ft 368 kts 354°
2026-04-26 14:42 51.87557 11.05181 18310 ft 366 kts 349°
2026-04-26 14:42 51.90082 11.04626 18311 ft 366 kts 349°
2026-04-26 14:42 51.92607 11.04085 18309 ft 366 kts 349°
2026-04-26 14:42 51.95128 11.03551 18304 ft 366 kts 349°
2026-04-26 14:43 51.97657 11.03015 18308 ft 366 kts 349°
2026-04-26 14:43 52.00177 11.02480 18304 ft 366 kts 349°
2026-04-26 14:43 52.02699 11.01943 18301 ft 366 kts 349°
2026-04-26 14:43 52.05210 11.01407 18299 ft 366 kts 349°
2026-04-26 14:44 52.07748 11.00864 18293 ft 366 kts 349°
2026-04-26 14:44 52.10267 11.00324 18294 ft 365 kts 349°
2026-04-26 14:44 52.12791 10.99783 18298 ft 365 kts 349°
2026-04-26 14:44 52.15300 10.99245 18297 ft 365 kts 349°
2026-04-26 14:45 52.17818 10.98704 18296 ft 365 kts 349°
2026-04-26 14:45 52.19523 10.98336 18296 ft 365 kts 349°
2026-04-26 14:45 52.22853 10.97618 18296 ft 365 kts 349°
2026-04-26 14:45 52.25374 10.97074 18296 ft 365 kts 349°
2026-04-26 14:46 52.27886 10.96532 18297 ft 365 kts 349°
2026-04-26 14:46 52.30402 10.95988 18293 ft 365 kts 349°
2026-04-26 14:46 52.32912 10.95446 18296 ft 364 kts 349°
2026-04-26 14:46 52.35428 10.94900 18296 ft 364 kts 349°
2026-04-26 14:47 52.37947 10.94353 18293 ft 364 kts 349°
2026-04-26 14:47 52.40445 10.93764 18297 ft 363 kts 346°
2026-04-26 14:47 52.42910 10.92864 18297 ft 361 kts 343°
2026-04-26 14:47 52.45348 10.91836 18293 ft 362 kts 342°
2026-04-26 14:48 52.47778 10.90807 18297 ft 362 kts 342°
2026-04-26 14:48 52.50223 10.89803 18295 ft 362 kts 343°
2026-04-26 14:48 52.52666 10.88827 18297 ft 362 kts 343°
2026-04-26 14:48 52.55115 10.87864 18293 ft 362 kts 343°
2026-04-26 14:49 52.57564 10.86906 18296 ft 362 kts 343°
2026-04-26 14:49 52.60011 10.85950 18294 ft 361 kts 343°
2026-04-26 14:49 52.62459 10.84994 18295 ft 361 kts 343°
2026-04-26 14:49 52.64907 10.84036 18299 ft 362 kts 343°
2026-04-26 14:50 52.67357 10.83076 18290 ft 361 kts 343°
2026-04-26 14:50 52.69798 10.82119 18301 ft 361 kts 343°
2026-04-26 14:50 52.72243 10.81159 18291 ft 361 kts 343°
2026-04-26 14:50 52.74693 10.80194 18236 ft 362 kts 343°
2026-04-26 14:51 52.77141 10.79229 17973 ft 361 kts 343°
2026-04-26 14:51 52.79571 10.78270 17709 ft 358 kts 343°
2026-04-26 14:51 52.81983 10.77317 17446 ft 356 kts 343°
2026-04-26 14:51 52.84388 10.76365 17176 ft 355 kts 343°
2026-04-26 14:52 52.86785 10.75417 16925 ft 354 kts 343°
2026-04-26 14:52 52.89172 10.74472 16676 ft 352 kts 343°
2026-04-26 14:52 52.91555 10.73528 16413 ft 351 kts 343°
2026-04-26 14:52 52.93922 10.72588 16158 ft 349 kts 343°
2026-04-26 14:53 52.96277 10.71651 15910 ft 348 kts 344°
2026-04-26 14:53 52.98627 10.70716 15659 ft 347 kts 343°
2026-04-26 14:53 53.01000 10.69769 15409 ft 345 kts 344°
2026-04-26 14:53 53.03302 10.68851 15168 ft 344 kts 344°
2026-04-26 14:54 53.05622 10.67923 14930 ft 343 kts 344°
2026-04-26 14:54 53.07939 10.66995 14694 ft 342 kts 344°
2026-04-26 14:54 53.10252 10.66069 14451 ft 341 kts 344°
2026-04-26 14:54 53.12578 10.65137 14212 ft 339 kts 344°
2026-04-26 14:55 53.14869 10.64218 13965 ft 338 kts 344°
2026-04-26 14:55 53.17146 10.63303 13695 ft 336 kts 344°
2026-04-26 14:55 53.19410 10.62395 13436 ft 335 kts 344°
2026-04-26 14:55 53.21608 10.61507 13167 ft 333 kts 344°
2026-04-26 14:56 53.23859 10.60603 12914 ft 332 kts 344°
2026-04-26 14:56 53.26096 10.59703 12653 ft 329 kts 344°
2026-04-26 14:56 53.28315 10.58808 12398 ft 328 kts 344°
2026-04-26 14:56 53.30530 10.57912 12149 ft 327 kts 344°
2026-04-26 14:57 53.32736 10.57019 11887 ft 325 kts 345°
2026-04-26 14:57 53.34928 10.56131 11642 ft 324 kts 345°
2026-04-26 14:57 53.37083 10.55258 11412 ft 322 kts 345°
2026-04-26 14:57 53.39284 10.54365 11148 ft 321 kts 345°
2026-04-26 14:58 53.41454 10.53482 10755 ft 321 kts 345°
2026-04-26 14:58 53.43614 10.52601 10311 ft 317 kts 345°
2026-04-26 14:58 53.45711 10.51750 10177 ft 303 kts 345°
2026-04-26 14:58 53.47714 10.50937 10043 ft 289 kts 345°
2026-04-26 14:59 53.49616 10.50165 9819 ft 275 kts 345°
2026-04-26 14:59 53.51472 10.49409 9364 ft 266 kts 345°
2026-04-26 14:59 53.53275 10.48668 9220 ft 271 kts 345°
2026-04-26 14:59 53.54494 10.48168 9091 ft 273 kts 345°
2026-04-26 15:00 53.56925 10.47171 8880 ft 266 kts 345°
2026-04-26 15:00 53.58719 10.46440 8492 ft 265 kts 345°
2026-04-26 15:00 53.60515 10.45704 8066 ft 265 kts 345°
2026-04-26 15:00 53.62306 10.44967 7635 ft 265 kts 345°
2026-04-26 15:01 53.64100 10.44230 7184 ft 266 kts 344°
2026-04-26 15:01 53.65921 10.43482 6674 ft 266 kts 344°
2026-04-26 15:01 53.67714 10.42742 6144 ft 264 kts 345°
2026-04-26 15:01 53.69494 10.42010 5630 ft 264 kts 345°
2026-04-26 15:02 53.71282 10.41275 5107 ft 265 kts 345°
2026-04-26 15:02 53.73064 10.40515 4585 ft 263 kts 340°
2026-04-26 15:02 53.74643 10.39023 4072 ft 260 kts 324°
2026-04-26 15:02 53.76129 10.37279 3561 ft 262 kts 324°
2026-04-26 15:03 53.77607 10.35450 3137 ft 262 kts 315°
2026-04-26 15:03 53.78496 10.32900 3016 ft 249 kts 284°
2026-04-26 15:03 53.78553 10.30094 3019 ft 251 kts 264°
2026-04-26 15:03 53.78041 10.27269 3019 ft 254 kts 236°
2026-04-26 15:04 53.77305 10.25729 3003 ft 254 kts 228°
2026-04-26 15:04 53.76118 10.23596 3000 ft 244 kts 227°
2026-04-26 15:04 53.74985 10.21588 2997 ft 228 kts 227°
2026-04-26 15:04 53.73921 10.19694 3021 ft 220 kts 227°
2026-04-26 15:05 53.72865 10.17788 3000 ft 224 kts 227°
2026-04-26 15:05 53.72143 10.16464 2769 ft 229 kts 228°
2026-04-26 15:05 53.70713 10.13810 2225 ft 228 kts 229°
2026-04-26 15:05 53.69680 10.11863 1980 ft 212 kts 229°
2026-04-26 15:06 53.68785 10.10196 1888 ft 173 kts 229°
2026-04-26 15:06 53.68016 10.08794 1542 ft 155 kts 228°
2026-04-26 15:06 53.67331 10.07495 1282 ft 141 kts 231°
2026-04-26 15:06 53.66714 10.06261 1018 ft 132 kts 231°
2026-04-26 15:07 53.65575 10.03945 689 ft 129 kts 231°
2026-04-26 15:07 53.65007 10.02804 505 ft 125 kts 232°
2026-04-26 15:07 53.64440 10.01663 322 ft 127 kts 232°
2026-04-26 15:08 53.63894 10.00551 159 ft 124 kts 231°
2026-04-26 15:08 53.63352 9.99451 50 ft 116 kts 231°
2026-04-26 15:08 53.62938 9.98622 44 ft 54 kts 225°
2026-04-26 15:08 53.62754 9.98472 44 ft 7 kts 186°
2026-04-26 15:09 53.62713 9.98469 46 ft 0 kts 175°
2026-04-26 15:10 53.62688 9.98510 46 ft 12 kts 96°
2026-04-26 15:10 53.62738 9.98651 46 ft 15 kts 49°
2026-04-26 15:11 53.62815 9.98803 46 ft 18 kts 51°
2026-04-26 15:11 53.62901 9.98978 46 ft 21 kts 50°
2026-04-26 15:11 53.62988 9.99154 46 ft 19 kts 50°
2026-04-26 15:11 53.63077 9.99347 46 ft 23 kts 56°
2026-04-26 15:12 53.63176 9.99577 46 ft 25 kts 50°
2026-04-26 15:12 53.63277 9.99763 48 ft 18 kts 45°
2026-04-26 15:12 53.63363 9.99933 48 ft 20 kts 50°
2026-04-26 15:12 53.63393 9.99993 48 ft 0 kts 52°
2026-04-26 15:15 53.63393 9.99995 48 ft 1 kts 52°
2026-04-26 15:15 53.63412 10.00032 48 ft 7 kts 49°
2026-04-26 15:15 53.63436 10.00128 48 ft 9 kts 95°
2026-04-26 15:15 53.63407 10.00223 48 ft 8 kts 101°
2026-04-26 15:16 53.63413 10.00318 48 ft 8 kts 86°
2026-04-26 15:16 53.63414 10.00341 48 ft 0 kts 86°